NOAA NWS Hourly Roundups by Site

Regional Weather Roundup for Topeka, KS

To Select Another Site Choose from List

Select Site:  

042
ASUS43 KTOP 200808
RWRKS

WEATHER ROUNDUP FOR KANSAS
NATIONAL WEATHER SERVICE GOODLAND KS
200 AM CST WED NOV 20 2019

NOTE:  "FAIR" INDICATES FEW OR NO CLOUDS BELOW 12,000 FEET WITH NO
SIGNIFICANT WEATHER AND/OR OBSTRUCTIONS TO VISIBILITY.

KSZ001>006-013>018-027>032-041>047-200900-
NORTHWEST KANSAS

CITY           SKY/WX    TMP DP  RH WIND       PRES   REMARKS
GOODLAND       PTCLDY    30  25  81 SW5       29.66F
HAYS           CLEAR     47  38  71 SE12      29.72F
HILL CITY      CLEAR     48  37  65 SE10      29.70F
RUSSELL        CLEAR     52  36  54 S21G28    29.71F
$$

KSZ061>065-074>080-084>089-200900-
SOUTHWEST KANSAS

CITY           SKY/WX    TMP DP  RH WIND       PRES   REMARKS
DODGE CITY     CLEAR     49  32  52 S12       29.70F
ELKHART        MOCLDY    45  32  60 S9        29.66F
GARDEN CITY    CLEAR     45  36  70 SE10      29.67F
GREAT BEND     CLEAR     52  38  58 SE16      29.74F
LIBERAL        CLEAR     45  36  70 S10       29.69F
PRATT          CLEAR     53  37  55 SE13G21   29.76F
$$

KSZ066>073-081>083-090>101-200900-
SOUTHEAST KANSAS

CITY           SKY/WX    TMP DP  RH WIND       PRES   REMARKS
CHANUTE        CLEAR     49  34  56 SE9       29.93R
COFFEYVILLE    CLEAR     48  33  56 S5        29.92R
HUTCHINSON     CLEAR     54  37  52 SE12      29.80F
MEDICINE LODGE   N/A     48  38  68 SE8G17    29.77F
NEWTON         CLEAR     51  35  54 SE15      29.83F
PARSONS        CLEAR     52  34  50 SE5       29.93R
WICHITA INTL   CLEAR     55  36  48 SE15      29.82F
WICHITA JABRA  CLEAR     55  36  48 S14G23    29.83F
WINFIELD       CLEAR     53  37  54 SE14      29.86F
$$

KSZ007>012-019>026-033>040-048>060-102>105-200900-
NORTHEAST KANSAS

CITY           SKY/WX    TMP DP  RH WIND       PRES   REMARKS
CONCORDIA      CLEAR     50  33  52 E9        29.79F
EMPORIA        CLEAR     42  33  70 SE7       29.88S
LAWRENCE       CLEAR     43  32  65 E9        29.93S
MANHATTAN      CLEAR     52  33  48 NE3       29.85F
MARYSVILLE     CLEAR     48  34  57 SE13      29.85F
OLATHE IND     CLEAR     47  32  56 E9        29.94F
OLATHE EXE     CLEAR     48  32  53 SE8       29.94F
SALINA         CLEAR     54  35  48 S13       29.79F
TOPEKA BILLARD CLEAR     41  33  73 E5        29.91S
TOPEKA FORBES  CLEAR     45  33  63 SE8       29.90S
$$



 

View Past Reports for Topeka, KS.

Products Courtesy of NOAA-NWS
NWS Information Parsing Script by Ken True at Saratoga Weather - Script by SE Lincoln Weather.